1504342800.56,34104,21.56,73700.3,13.77,9.71,10.37,0,*77
1504342801.77,34105,21.56,73702.3,13.81,10.03,10.69,0,*49
1504342802.96,34106,21.56,73702.0,13.87,10.47,11.21,0,*41
1504342804.22,34107,21.56,73702.0,13.91,10.61,11.23,0,*41
1504342805.46,34108,21.56,73706.5,13.93,10.41,11.07,0,*48
1504342806.71,34109,21.56,73704.8,13.95,9.85,10.33,0,*79
1504342807.92,34110,21.56,73704.3,13.97,9.15,9.75,0,*40
1504342809.13,34111,21.56,73704.0,14.01,9.91,10.57,0,*7D
1504342810.34,34112,21.56,73700.0,14.03,9.71,10.43,0,*77
1504342811.58,34113,21.56,73700.8,14.11,9.77,10.55,0,*74
1504342812.82,34114,21.56,73702.3,14.15,10.03,10.71,0,*4A
1504342814.06,34115,21.56,73700.5,14.15,10.27,10.93,0,*41
1504342815.32,34116,21.56,73700.5,14.19,10.27,10.99,0,*44
1504342816.53,34117,21.56,73702.3,14.23,10.61,11.47,0,*4C
1504342817.77,34118,21.5,73700.3,14.25,10.43,11.31,0,*44
1504342818.99,34119,21.56,73700.0,14.31,10.79,11.65,0,*48
1504342820.23,34120,21.56,73704.0,14.33,10.05,11.03,0,*4B
1504342821.48,34121,21.56,73706.5,14.37,9.43,10.27,0,*73
1504342822.71,34122,21.56,73704.3,14.41,7.41,8.33,0,*41
1504342823.89,34123,21.56,73704.0,14.39,7.59,8.45,0,*47
1504342825.16,34124,21.56,73702.8,14.41,7.19,7.77,0,*45
1504342826.39,34125,21.56,73700.3,14.41,7.01,7.69,0,*42
1504342827.64,34126,21.56,73696.8,14.41,8.33,9.11,0,*4E
1504342828.87,34127,21.56,73696.8,14.41,8.87,9.61,0,*47
1504342830.13,34128,21.56,73690.8,14.41,9.01,9.89,0,*41
1504342831.34,34129,21.56,73694.0,14.45,9.75,10.55,0,*7E
1504342832.58,34130,21.56,73692.8,14.49,9.77,10.55,0,*78
1504342833.83,34131,21.56,73690.5,14.49,10.09,10.79,0,*46
1504342835.1,34132,21.56,73690.3,14.55,9.85,10.61,0,*7D
1504342836.32,34133,21.56,73694.3,14.57,9.49,10.09,0,*70
1504342837.58,34134,21.56,73700.5,14.59,8.37,8.71,0,*47
1504342838.82,34135,21.56,73700.3,14.59,8.47,9.21,0,*45
1504342840.04,34136,21.56,73706.0,14.59,9.43,10.09,0,*71
1504342841.25,34137,21.56,73702.5,14.61,9.91,10.75,0,*7F
1504342842.46,34138,21.56,73706.8,14.65,9.75,10.65,0,*7F
1504342843.67,34139,21.56,73704.0,14.67,8.87,9.63,0,*4E
1504342844.9,34140,21.56,73704.5,14.67,6.93,7.77,0,*40
1504342846.12,34141,21.56,73704.5,14.67,7.97,8.71,0,*4D
1504342847.35,34142,21.56,73706.0,14.67,7.95,8.87,0,*45
1504342848.58,34143,21.56,73710.3,14.67,8.05,8.75,0,*4F
1504342849.77,34144,21.56,73706.3,14.69,7.29,8.09,0,*4C
1504342850.96,34145,21.56,73702.0,14.69,7.29,8.09,0,*4D
1504342852.18,34146,21.56,73702.3,14.69,7.79,8.55,0,*42
1504342853.38,34147,21.56,73700.5,14.71,8.01,8.69,0,*45
1504342854.64,34148,21.56,73700.3,14.71,7.65,8.41,0,*4D
1504342855.89,34149,21.56,73706.0,14.71,7.23,7.91,0,*4C
1504342857.09,34150,21.56,73706.3,14.69,6.93,7.51,0,*4B
1504342858.32,34151,21.56,73708.3,14.69,7.61,8.29,0,*46
1504342859.54,34152,21.56,73710.0,14.69,8.87,9.57,0,*4A
1504342860.74,34153,21.56,73708.8,14.69,8.29,8.79,0,*42
1504342861.98,34154,21.56,73700.8,14.69,7.11,7.65,0,*43
1504342863.16,34155,21.56,73698.0,14.69,6.83,7.45,0,*4A
1504342864.38,34156,21.56,73698.5,14.69,6.51,6.83,0,*4D
1504342865.58,34157,21.56,73696.3,14.65,5.19,5.55,0,*47
1504342866.82,34158,21.56,73698.5,14.63,4.23,4.59,0,*4B
1504342868.0,34159,21.56,73698.5,14.57,3.25,3.59,0,*4B
1504342869.21,34160,21.56,73700.5,14.53,3.45,3.85,0,*42
1504342870.39,34161,21.56,73704.5,14.47,4.07,4.53,0,*4B
1504342871.59,34162,21.56,73706.8,14.43,3.53,3.81,0,*42
1504342872.78,34163,21.56,73702.0,14.39,3.85,4.33,0,*4B
1504342874.02,34164,21.56,73700.3,14.37,4.41,4.97,0,*43
1504342875.22,34165,21.56,73702.0,14.35,3.29,3.53,0,*46
1504342876.4,34166,21.56,73696.5,14.27,3.63,3.85,0,*43
1504342877.61,34167,21.56,73700.3,14.25,3.81,4.15,0,*42
1504342878.84,34168,21.56,73698.0,14.21,4.01,4.27,0,*47
1504342880.06,34169,21.56,73700.8,14.21,5.19,5.71,0,*4C
1504342881.25,34170,21.56,73706.0,14.17,5.27,5.37,0,*4E
1504342882.46,34171,21.56,73700.8,14.13,3.29,3.67,0,*40
1504342883.66,34172,21.56,73700.3,14.13,3.11,3.55,0,*49
1504342884.9,34173,21.56,73702.5,14.05,2.81,3.33,0,*47
1504342886.13,34174,21.56,73700.8,13.99,2.35,2.59,0,*40
1504342887.39,34175,21.56,73702.5,13.99,2.59,2.89,0,*46
1504342888.63,34176,21.56,73698.5,13.91,3.67,4.15,0,*42
1504342889.87,34177,21.56,73702.5,13.91,5.95,6.35,0,*48
1504342891.12,34178,21.56,73706.3,13.91,6.17,6.53,0,*4E
1504342892.37,34179,21.56,73702.3,13.91,5.51,5.77,0,*4B
1504342893.6,34180,21.56,73706.3,13.91,6.07,6.53,0,*48
1504342894.86,34181,21.56,73706.5,13.91,6.87,7.11,0,*46
1504342896.08,34182,21.56,73702.5,13.91,6.69,7.05,0,*40
1504342897.31,34183,21.56,73706.8,13.91,6.25,6.57,0,*4F
1504342898.57,34184,21.56,73710.3,13.91,6.69,6.91,0,*4A
1504342899.81,34185,21.56,73708.8,13.93,6.17,6.51,0,*4C
1504342901.02,34186,21.56,73702.8,13.93,6.35,6.79,0,*45
1504342902.23,34187,21.56,73704.3,13.91,6.07,6.25,0,*4E
1504342903.43,34188,21.56,73706.5,13.91,6.79,7.05,0,*4B
1504342904.67,34189,21.56,73706.3,13.91,7.33,7.69,0,*4F
1504342905.88,34190,21.56,73706.0,13.93,6.61,6.93,0,*47
1504342907.12,34191,21.56,73704.3,13.91,6.73,6.97,0,*43
1504342908.32,34192,21.56,73706.3,13.93,7.59,7.83,0,*4F
1504342909.54,34193,21.56,73704.8,13.93,6.21,6.39,0,*40
1504342910.77,34194,21.56,73702.0,13.91,5.77,5.99,0,*4C
1504342911.98,34195,21.56,73700.5,13.89,5.63,5.85,0,*4C
1504342913.19,34196,21.56,73700.3,13.87,4.89,5.01,0,*48
1504342914.46,34197,21.56,73700.3,13.85,4.31,4.59,0,*44
1504342915.66,34198,21.56,73700.8,13.81,5.07,5.33,0,*46
1504342916.93,34199,21.56,73700.5,13.77,4.67,5.05,0,*4C
1504342918.13,34200,21.56,73704.3,13.77,5.15,5.37,0,*4A
1504342919.35,34201,21.56,73702.8,13.73,4.27,4.49,0,*47
1504342920.58,34202,21.56,73704.0,13.69,1.75,1.85,0,*48
1504342921.8,34203,21.56,73702.8,13.63,1.05,1.09,0,*40
1504342923.05,34204,21.56,73702.0,13.55,1.71,1.93,0,*42
1504342924.31,34205,21.56,73704.5,13.51,3.11,3.33,0,*4B
1504342925.54,34206,21.56,73706.8,13.47,4.27,4.59,0,*46
1504342926.74,34207,21.56,73708.8,13.47,5.37,5.63,0,*4F
1504342927.96,34208,21.56,73704.5,13.47,5.95,6.33,0,*4E
1504342929.16,34209,21.56,73706.3,13.45,5.27,5.59,0,*4B
1504342930.37,34210,21.56,73706.8,13.43,4.89,5.23,0,*4D
1504342931.61,34211,21.56,73706.0,13.43,4.93,5.23,0,*47
1504342932.82,34212,21.56,73706.8,13.43,5.33,5.67,0,*4F
1504342934.06,34213,21.56,73704.5,13.43,5.55,5.81,0,*46
1504342935.28,34214,21.56,73706.3,13.41,6.11,6.47,0,*49
1504342936.5,34215,21.56,73706.3,13.43,6.73,7.05,0,*49
1504342937.73,34216,21.56,73700.5,13.43,7.29,7.65,0,*42
1504342938.94,34217,21.56,73710.3,13.43,7.09,7.51,0,*46
1504342940.17,34218,21.56,73706.8,13.43,6.73,7.05,0,*44
1504342941.35,34219,21.56,73704.5,13.45,5.95,6.29,0,*47
1504342942.54,34220,21.56,73706.0,13.45,5.27,5.49,0,*41
1504342943.78,34221,21.56,73704.5,13.43,5.01,5.33,0,*4F
1504342944.98,34222,21.56,73706.8,13.41,5.33,5.51,0,*4B
1504342946.17,34223,21.56,73706.3,13.41,5.67,5.99,0,*4F
1504342947.38,34224,21.56,73704.0,13.41,6.47,6.83,0,*41
1504342948.61,34225,21.56,73708.0,13.43,6.73,7.05,0,*4A
1504342949.81,34226,21.56,73708.3,13.43,6.97,7.41,0,*43
1504342951.0,34227,21.56,73708.8,13.45,6.83,7.29,0,*4F
1504342952.2,34228,21.56,73706.5,13.45,5.71,6.17,0,*42
1504342953.44,34229,21.56,73708.8,13.43,4.79,5.23,0,*48
1504342954.67,34230,21.56,73710.5,13.45,5.93,6.43,0,*46
1504342955.88,34231,21.56,73714.5,13.45,6.43,6.93,0,*44
1504342957.08,34232,21.56,73710.5,13.45,6.75,7.23,0,*48
1504342958.32,34233,21.56,73714.8,13.47,6.43,6.97,0,*40
1504342959.53,34234,21.56,73712.8,13.49,6.43,6.93,0,*4D
1504342960.79,34235,21.56,73712.0,13.47,6.57,6.91,0,*45
1504342961.96,34236,21.56,73714.0,13.49,5.23,5.41,0,*46
1504342963.22,34237,21.56,73710.3,13.47,4.67,4.79,0,*42
1504342964.46,34238,21.56,73706.0,13.47,5.19,5.27,0,*4F
1504342965.69,34239,21.56,73704.8,13.45,5.81,5.85,0,*45
1504342966.88,34240,21.56,73704.5,13.45,6.03,6.25,0,*4B
1504342968.06,34241,21.56,73700.5,13.45,6.03,6.25,0,*4A
1504342969.26,34242,21.56,73702.5,13.45,5.59,5.73,0,*45
1504342970.47,34243,21.56,73702.8,13.43,5.67,6.03,0,*4B
1504342971.73,34244,21.56,73700.3,13.43,6.17,6.43,0,*4C
1504342972.94,34245,21.56,73702.5,13.43,6.03,6.29,0,*44
1504342974.17,34246,21.56,73700.5,13.43,6.25,6.61,0,*4F
1504342975.4,34247,21.56,73702.0,13.47,6.69,6.97,0,*4B
1504342976.65,34248,21.56,73702.5,13.43,6.51,6.65,0,*46
1504342977.89,34249,21.56,73704.5,13.43,6.51,6.83,0,*4F
1504342979.09,34250,21.56,73706.8,13.45,7.11,7.41,0,*4B
1504342980.27,34251,21.56,73706.3,13.45,7.09,7.33,0,*46
1504342981.45,34252,21.56,73706.5,13.45,7.29,7.51,0,*43
1504342982.64,34253,21.56,73706.5,13.45,7.05,7.29,0,*43
1504342983.9,34254,21.56,73708.5,13.47,6.65,6.91,0,*43
1504342985.16,34255,21.56,73704.5,13.47,6.43,6.69,0,*41
1504342986.39,34256,21.56,73708.0,13.45,6.87,7.11,0,*46
1504342987.59,34257,21.56,73708.0,13.45,5.67,5.73,0,*4C
1504342988.8,34258,21.56,73708.3,13.45,3.85,3.97,0,*45
1504342990.03,34259,21.56,73704.5,13.41,4.31,4.59,0,*4D
1504342991.21,34260,21.56,73704.3,13.41,5.33,5.63,0,*4C
1504342992.42,34261,21.56,73710.0,13.37,5.63,5.93,0,*46
1504342993.63,34262,21.56,73710.3,13.41,5.89,6.11,0,*49
1504342994.8,34263,21.56,73710.3,13.37,5.15,5.37,0,*4B
1504342996.01,34264,21.56,73708.8,13.37,5.73,5.99,0,*48
1504342997.21,34265,21.56,73708.8,13.35,5.29,5.59,0,*48
1504342998.42,34266,21.56,73708.3,13.37,5.73,6.11,0,*49
1504342999.66,34267,21.56,73708.0,13.35,6.17,6.57,0,*49
1504343000.89,34268,21.56,73708.3,13.35,6.21,6.57,0,*43
1504343002.07,34269,21.56,73710.5,13.37,6.97,7.55,0,*4E
1504343003.26,34270,21.56,73708.8,13.41,7.37,8.05,0,*46
1504343004.49,34271,21.56,73702.3,13.43,7.73,8.69,0,*4F
1504343005.67,34272,21.56,73704.8,13.45,8.19,9.21,0,*44
1504343006.86,34273,21.56,73704.8,13.53,8.23,9.29,0,*43
1504343008.08,34274,21.56,73706.5,13.55,6.07,7.23,0,*4E
1504343009.36,34275,21.56,73704.5,13.57,6.51,7.77,0,*4F
1504343010.59,34276,21.63,73706.3,13.63,6.39,7.83,0,*4E
1504343011.8,34277,21.56,73706.8,13.67,6.39,8.15,0,*4B
1504343013.02,34278,21.56,73704.3,13.67,6.17,8.09,0,*45
1504343014.22,34279,21.56,73706.5,13.71,5.85,8.01,0,*43
1504343015.45,34280,21.56,73706.5,13.75,6.33,8.59,0,*42
1504343016.65,34281,21.56,73704.5,13.75,5.81,7.97,0,*44
1504343017.88,34282,21.56,73700.8,13.79,6.53,8.71,0,*40
1504343019.15,34283,21.56,73706.3,13.81,6.13,8.13,0,*46
1504343020.35,34284,21.56,73700.5,13.89,5.77,7.59,0,*49
1504343021.58,34285,21.56,73708.0,13.87,6.91,8.75,0,*4C
1504343022.77,34286,21.56,73706.5,13.93,8.19,9.75,0,*45
1504343023.99,34287,21.56,73704.8,13.97,6.97,8.55,0,*4B
1504343025.22,34288,21.63,73708.8,13.99,7.45,9.11,0,*45
1504343026.42,34289,21.56,73706.5,14.03,7.97,9.75,0,*4D
1504343027.63,34290,21.56,73710.3,14.11,7.79,9.67,0,*45
1504343028.84,34291,21.63,73712.3,14.11,7.79,9.67,0,*44
1504343030.06,34292,21.56,73712.0,14.15,7.41,9.19,0,*41
1504343031.3,34293,21.56,73708.3,14.21,7.47,9.33,0,*49
1504343032.56,34294,21.56,73712.3,14.25,6.73,8.51,0,*49
1504343033.75,34295,21.56,73710.3,14.27,7.29,9.29,0,*4A
1504343034.96,34296,21.56,73708.8,14.31,7.19,9.47,0,*45
1504343036.14,34297,21.56,73710.8,14.35,7.51,9.63,0,*4A
1504343037.4,34298,21.56,73710.8,14.37,7.65,9.85,0,*48
1504343038.64,34299,21.56,73710.3,14.41,7.09,8.93,0,*44
1504343039.87,34300,21.56,73710.3,14.43,6.91,8.59,0,*41
1504343041.13,34301,21.56,73708.8,14.45,6.87,8.41,0,*48
1504343042.36,34302,21.56,73710.5,14.45,7.19,8.61,0,*4F
1504343043.57,34303,21.56,73710.8,14.47,6.87,8.09,0,*44
1504343044.77,34304,21.56,73710.8,14.47,5.99,7.27,0,*4C
1504343046.0,34305,21.56,73710.5,14.47,4.75,5.89,0,*48
1504343047.27,34306,21.63,73710.5,14.45,4.05,5.01,0,*4E
1504343048.53,34307,21.56,73710.3,14.41,3.75,4.59,0,*47
1504343049.72,34308,21.56,73708.8,14.35,4.15,5.07,0,*40
1504343050.93,34309,21.56,73708.8,14.35,4.93,5.67,0,*49
1504343052.17,34310,21.56,73708.5,14.31,4.59,5.27,0,*47
1504343053.38,34311,21.56,73708.8,14.27,4.19,4.67,0,*40
1504343054.59,34312,21.63,73714.0,14.25,4.41,4.89,0,*4C
1504343055.83,34313,21.56,73710.8,14.21,4.79,5.19,0,*4A
1504343057.03,34314,21.56,73710.5,14.19,4.19,4.49,0,*44
1504343058.21,34315,21.56,73708.3,14.17,5.11,5.49,0,*43
1504343059.44,34316,21.63,73712.8,14.15,5.23,5.55,0,*4E
1504343060.67,34317,21.63,73712.3,14.11,4.97,5.41,0,*40
1504343061.92,34318,21.56,73712.0,14.11,5.05,5.27,0,*45
1504343063.12,34319,21.56,73710.8,14.09,5.07,5.51,0,*4E
1504343064.32,34320,21.63,73712.3,14.05,5.27,5.63,0,*4B
1504343065.52,34321,21.56,73712.3,14.03,5.71,6.25,0,*4E
1504343066.73,34322,21.56,73712.0,14.03,5.67,6.03,0,*4E
1504343067.92,34323,21.56,73710.5,14.01,5.29,5.77,0,*47
1504343069.15,34324,21.56,73714.5,13.99,5.15,5.73,0,*4D
1504343070.38,34325,21.56,73714.0,13.99,5.73,6.21,0,*48
1504343071.64,34326,21.56,73712.0,13.99,4.93,5.05,0,*41
1504343072.88,34327,21.56,73712.0,13.95,4.57,4.93,0,*4A
1504343074.11,34328,21.63,73714.8,13.95,5.49,5.81,0,*49
1504343075.34,34329,21.63,73718.0,13.93,5.55,5.81,0,*43
1504343076.57,34330,21.63,73714.0,13.91,5.95,6.35,0,*49
1504343077.8,34331,21.56,73714.0,13.91,5.41,5.85,0,*49
1504343079.03,34332,21.56,73710.0,13.89,3.53,3.79,0,*43
1504343080.24,34333,21.56,73710.8,13.87,3.25,3.37,0,*47
1504343081.47,34334,21.63,73712.3,13.81,4.85,5.27,0,*4C
1504343082.66,34335,21.63,73714.8,13.79,5.33,5.67,0,*42
1504343083.89,34336,21.63,73714.8,13.77,4.01,4.19,0,*47
1504343085.12,34337,21.63,73714.3,13.75,3.71,3.97,0,*45
1504343086.39,34338,21.56,73708.3,13.73,3.03,3.15,0,*43
1504343087.6,34339,21.63,73710.5,13.67,2.95,3.19,0,*45
1504343088.85,34340,21.56,73708.0,13.65,4.05,4.37,0,*4D
1504343090.05,34341,21.63,73712.5,13.59,2.99,3.19,0,*4B
1504343091.29,34342,21.63,73712.8,13.57,2.35,2.59,0,*45
1504343092.5,34343,21.63,73710.8,13.53,3.03,3.25,0,*4E
1504343093.76,34344,21.56,73704.8,13.51,2.51,2.89,0,*4A
1504343094.99,34345,21.63,73708.5,13.45,3.11,3.37,0,*4F
1504343096.19,34346,21.63,73708.8,13.43,3.59,3.81,0,*4B
1504343097.43,34347,21.56,73700.8,13.43,2.43,2.61,0,*4F
1504343098.69,34348,21.56,73694.8,13.35,3.15,3.33,0,*45
1504343099.87,34349,21.56,73696.0,13.33,3.59,3.81,0,*43
1504343101.11,34350,21.56,73702.3,13.29,3.37,3.71,0,*47
1504343102.31,34351,21.56,73708.0,13.29,3.55,3.79,0,*4A
1504343103.54,34352,21.63,73702.0,13.25,1.71,1.71,0,*4B
1504343104.74,34353,21.56,73698.5,13.19,2.95,3.15,0,*4C
1504343105.98,34354,21.63,73704.8,13.17,3.29,3.41,0,*42
1504343107.19,34355,21.63,73708.8,13.13,3.25,3.59,0,*42
1504343108.4,34356,21.63,73706.5,13.11,4.57,5.01,0,*4A
1504343109.63,34357,21.63,73708.0,13.11,4.93,5.27,0,*47
1504343110.85,34358,21.63,73710.8,13.07,4.05,3.89,0,*42
1504343112.06,34359,21.63,73708.3,13.07,2.85,2.99,0,*4D
1504343113.29,34360,21.63,73706.8,13.03,2.69,2.89,0,*40
1504343114.51,34361,21.63,73710.5,12.99,1.67,1.79,0,*42
1504343115.75,34362,21.63,73708.3,12.95,3.23,3.41,0,*46
1504343116.97,34363,21.63,73706.0,12.89,3.75,3.93,0,*46
1504343118.2,34364,21.63,73706.8,12.89,3.37,3.49,0,*40
1504343119.43,34365,21.63,73704.0,12.85,2.85,2.89,0,*48
1504343120.66,34366,21.63,73708.0,12.83,2.95,3.15,0,*48
1504343121.87,34367,21.63,73710.5,12.81,2.09,2.27,0,*4E
1504343123.1,34368,21.63,73708.8,12.77,2.59,2.85,0,*45
1504343124.36,34369,21.63,73710.5,12.75,3.41,3.45,0,*43
1504343125.57,34370,21.56,73708.8,12.73,4.01,4.15,0,*4C
1504343126.8,34371,21.63,73710.8,12.67,4.05,4.11,0,*48
1504343128.04,34372,21.63,73710.8,12.67,4.57,4.75,0,*4E
1504343129.25,34373,21.63,73708.3,12.67,5.15,5.37,0,*4F
1504343130.48,34374,21.56,73710.3,12.67,5.85,6.07,0,*41
1504343131.71,34375,21.56,73708.8,12.67,5.49,5.73,0,*40
1504343132.92,34376,21.63,73712.3,12.67,5.37,5.71,0,*48
1504343134.13,34377,21.63,73714.0,12.69,5.71,5.93,0,*49
1504343135.36,34378,21.63,73712.5,12.67,5.81,5.95,0,*41
1504343136.57,34379,21.63,73714.8,12.67,5.15,5.45,0,*40
1504343137.8,34380,21.63,73712.5,12.67,5.27,5.45,0,*47
1504343139.01,34381,21.63,73714.3,12.67,5.49,5.71,0,*49
1504343140.23,34382,21.63,73712.3,12.69,5.85,6.13,0,*43
1504343141.49,34383,21.63,73714.0,12.67,6.39,6.61,0,*4D
1504343142.69,34384,21.63,73718.0,12.69,6.53,6.83,0,*44
1504343143.9,34385,21.63,73714.0,12.69,6.51,6.75,0,*4E
1504343145.14,34386,21.63,73714.0,12.69,6.17,6.39,0,*47
1504343146.35,34387,21.63,73718.3,12.73,6.47,6.75,0,*40
1504343147.59,34388,21.63,73718.8,12.75,7.29,7.69,0,*4C
1504343148.85,34389,21.63,73716.0,12.75,7.15,7.61,0,*4A
1504343150.06,34390,21.56,73712.5,12.77,7.19,7.59,0,*47
1504343151.26,34391,21.63,73714.8,12.79,7.05,7.45,0,*48
1504343152.52,34392,21.63,73708.0,12.79,7.19,7.61,0,*40
1504343153.75,34393,21.63,73706.5,12.83,7.45,7.91,0,*42
1504343154.95,34394,21.63,73708.5,12.83,7.37,7.79,0,*46
1504343156.18,34395,21.63,73706.5,12.83,6.79,7.11,0,*42
1504343157.39,34396,21.63,73710.5,12.85,6.51,6.83,0,*47
1504343158.62,34397,21.63,73708.5,12.87,6.53,6.93,0,*47
1504343159.84,34398,21.63,73710.3,12.85,6.43,6.73,0,*45
1504343161.1,34399,21.63,73710.0,12.87,5.93,6.39,0,*46
1504343162.33,34400,21.63,73712.5,12.87,5.93,6.29,0,*40
1504343163.59,34401,21.63,73708.5,12.87,6.13,6.51,0,*45
1504343164.79,34402,21.63,73714.0,12.87,6.75,7.33,0,*43
1504343166.02,34403,21.63,73716.0,12.91,6.75,7.27,0,*40
1504343167.24,34404,21.63,73714.5,12.91,5.51,5.95,0,*49
1504343168.44,34405,21.63,73714.0,12.89,5.49,5.85,0,*49
1504343169.65,34406,21.63,73708.8,12.89,5.55,6.07,0,*4E
1504343170.88,34407,21.63,73704.5,12.89,7.19,7.77,0,*43
1504343172.07,34408,21.63,73710.0,12.95,7.59,8.01,0,*4B
1504343173.31,34409,21.63,73712.3,12.95,7.27,7.73,0,*49
1504343174.54,34410,21.63,73714.8,12.97,6.53,6.79,0,*4A
1504343175.75,34411,21.63,73714.3,12.95,5.85,6.33,0,*4F
1504343176.99,34412,21.63,73712.3,12.95,7.23,7.73,0,*47
1504343178.2,34413,21.63,73708.3,12.95,6.93,7.27,0,*4D
1504343179.46,34414,21.63,73708.5,12.97,7.83,8.47,0,*41
1504343180.7,34415,21.63,73708.0,13.01,7.29,7.83,0,*49
1504343181.88,34416,21.63,73714.0,13.03,7.55,8.09,0,*4E
1504343183.14,34417,21.63,73716.3,13.05,8.29,8.89,0,*45
1504343184.37,34418,21.63,73704.5,13.09,8.75,9.33,0,*4F
1504343185.61,34419,21.63,73710.5,13.13,8.13,8.87,0,*4B
1504343186.85,34420,21.63,73712.3,13.17,8.13,9.03,0,*48
1504343188.08,34421,21.63,73714.0,13.19,7.87,9.19,0,*4E
1504343189.28,34422,21.63,73710.5,13.23,6.87,8.79,0,*42
1504343190.54,34423,21.63,73714.3,13.27,6.87,9.19,0,*40
1504343191.75,34424,21.63,73710.5,13.33,7.19,9.67,0,*4D
1504343192.97,34425,21.63,73706.5,13.37,6.35,8.61,0,*40
1504343194.17,34426,21.63,73704.8,13.41,5.71,7.87,0,*46
1504343195.42,34427,21.63,73704.5,13.43,6.61,8.33,0,*47
1504343196.69,34428,21.63,73706.0,13.47,6.47,7.69,0,*48
1504343197.91,34429,21.63,73706.5,13.47,4.81,5.77,0,*4C
1504343199.09,34430,21.63,73704.8,13.45,4.53,5.49,0,*44
1504343200.29,34431,21.63,73712.3,13.45,5.37,6.13,0,*4A
1504343201.49,34432,21.63,73710.0,13.43,6.07,6.83,0,*46
1504343202.67,34433,21.63,73708.0,13.45,7.29,7.97,0,*48
1504343203.88,34434,21.63,73708.0,13.45,6.61,7.41,0,*49
1504343205.1,34435,21.63,73708.3,13.49,5.01,5.77,0,*46
1504343206.34,34436,21.63,73704.3,13.47,4.93,5.63,0,*44
1504343207.52,34437,21.63,73706.5,13.45,4.53,4.85,0,*42
1504343208.74,34438,21.63,73706.3,13.47,5.49,5.73,0,*4D
1504343209.98,34439,21.63,73708.5,13.43,6.03,6.39,0,*48
1504343211.21,34440,21.63,73708.8,13.43,5.85,6.25,0,*46
1504343212.43,34441,21.63,73710.0,13.43,6.39,6.93,0,*4E
1504343213.66,34442,21.63,73714.0,13.43,7.51,7.91,0,*41
1504343214.9,34443,21.63,73708.5,13.45,7.23,7.61,0,*4C
1504343216.11,34444,21.63,73712.3,13.45,6.03,6.51,0,*4A
1504343217.33,34445,21.63,73714.5,13.43,6.07,6.53,0,*4B
1504343218.53,34446,21.63,73710.0,13.43,5.49,6.07,0,*40
1504343219.75,34447,21.63,73712.8,13.41,6.03,6.47,0,*4A
1504343220.98,34448,21.63,73712.0,13.43,5.93,6.25,0,*49
1504343222.18,34449,21.63,73714.5,13.37,5.73,6.11,0,*42
1504343223.39,34450,21.63,73714.5,13.37,5.95,6.43,0,*45
1504343224.6,34451,21.63,73712.8,13.37,6.07,6.47,0,*48
1504343225.8,34452,21.63,73712.5,13.37,6.07,6.53,0,*4E
1504343227.0,34453,21.63,73714.8,13.37,5.73,6.21,0,*4A
1504343228.21,34454,21.63,73712.3,13.33,5.95,6.43,0,*45
1504343229.42,34455,21.63,73714.8,13.33,5.93,6.33,0,*45
1504343230.6,34456,21.63,73712.0,13.33,5.49,6.03,0,*42
1504343231.79,34457,21.63,73712.3,13.29,4.85,5.19,0,*41
1504343232.97,34458,21.63,73708.5,13.29,4.41,4.85,0,*42
1504343234.22,34459,21.63,73710.0,13.27,5.27,5.55,0,*40
1504343235.4,34460,21.63,73712.3,13.25,5.23,5.63,0,*49
1504343236.6,34461,21.63,73714.0,13.23,5.15,5.51,0,*4A
1504343237.84,34462,21.63,73716.0,13.21,4.31,4.53,0,*4F
1504343239.1,34463,21.63,73712.8,13.17,2.59,2.47,0,*40
1504343240.33,34464,21.63,73714.3,13.11,2.89,3.15,0,*4A
1504343241.52,34465,21.63,73712.3,13.07,4.15,4.53,0,*4A
1504343242.74,34466,21.63,73714.8,13.07,4.33,4.71,0,*4D
1504343243.95,34467,21.63,73712.3,13.05,4.45,4.85,0,*44
1504343245.16,34468,21.63,73712.3,13.01,4.53,4.89,0,*44
1504343246.41,34469,21.63,73712.8,12.99,3.67,4.05,0,*41
1504343247.62,34470,21.63,73710.8,12.99,3.49,3.81,0,*4E
1504343248.83,34471,21.63,73710.3,12.95,4.33,4.75,0,*45
1504343250.02,34472,21.63,73704.3,12.95,4.81,5.23,0,*4D
1504343251.26,34473,21.63,73706.3,12.89,4.67,5.01,0,*49
1504343252.45,34474,21.63,73704.5,12.89,4.53,4.89,0,*48
1504343253.65,34475,21.63,73704.5,12.87,3.85,4.19,0,*42
1504343254.87,34476,21.63,73704.8,12.85,3.45,3.79,0,*4E
1504343256.06,34477,21.63,73710.3,12.81,4.07,4.33,0,*43
1504343257.25,34478,21.63,73712.3,12.81,4.89,5.11,0,*4B
1504343258.48,34479,21.63,73710.3,12.81,5.27,5.55,0,*4F
1504343259.67,34480,21.63,73710.0,12.77,5.07,5.23,0,*43
1504343260.9,34481,21.63,73710.3,12.79,4.85,5.05,0,*43
1504343262.13,34482,21.63,73708.5,12.77,4.63,4.75,0,*40
1504343263.34,34483,21.63,73706.3,12.75,3.59,3.81,0,*41
1504343264.58,34484,21.63,73700.0,12.69,3.23,3.37,0,*4B
1504343265.84,34485,21.63,73702.8,12.67,2.69,2.89,0,*4F
1504343267.08,34486,21.63,73704.5,12.65,2.47,2.55,0,*43
1504343268.32,34487,21.63,73706.8,12.61,2.47,2.59,0,*4A
1504343269.53,34488,21.63,73706.0,12.57,2.99,3.25,0,*49
1504343270.74,34489,21.63,73704.5,12.55,3.67,3.89,0,*4C
1504343271.94,34490,21.63,73706.5,12.55,3.81,3.97,0,*43
1504343273.13,34491,21.63,73710.5,12.51,3.85,3.93,0,*46
1504343274.31,34492,21.63,73708.8,12.51,3.29,3.63,0,*4C
1504343275.53,34493,21.63,73710.8,12.45,3.93,4.07,0,*4C
1504343276.78,34494,21.63,73712.3,12.45,2.85,2.85,0,*41
1504343278.02,34495,21.63,73714.0,12.41,3.89,4.05,0,*47
1504343279.23,34496,21.63,73714.8,12.39,3.59,3.71,0,*42
1504343280.5,34497,21.63,73714.0,12.37,3.15,3.15,0,*47
1504343281.73,34498,21.63,73712.5,12.33,2.99,3.07,0,*4A
1504343282.96,34499,21.63,73714.8,12.31,2.81,2.85,0,*4B
1504343284.17,34500,21.63,73716.0,12.31,3.71,3.89,0,*49
1504343285.4,34501,21.63,73714.5,12.29,4.41,4.59,0,*4F
1504343286.62,34502,21.63,73714.3,12.27,4.79,5.11,0,*44
1504343287.83,34503,21.63,73714.3,12.23,4.75,5.07,0,*4A
1504343289.01,34504,21.63,73712.5,12.27,4.57,4.81,0,*46
1504343290.2,34505,21.63,73712.3,12.27,4.81,5.11,0,*44
1504343291.38,34506,21.63,73712.0,12.23,4.19,4.27,0,*46
1504343292.62,34507,21.63,73712.3,12.21,4.05,4.37,0,*49
1504343293.81,34508,21.63,73714.8,12.19,4.23,4.41,0,*48
1504343295.0,34509,21.63,73712.3,12.19,4.37,4.53,0,*4F
1504343296.23,34510,21.63,73716.0,12.17,4.67,4.81,0,*43
1504343297.41,34511,21.63,73714.5,12.15,4.41,4.57,0,*4F
1504343298.59,34512,21.63,73716.5,12.15,4.19,4.27,0,*46
1504343299.77,34513,21.63,73718.8,12.15,4.15,4.27,0,*4B
1504343300.98,34514,21.63,73714.5,12.15,4.19,4.31,0,*47
1504343302.2,34515,21.63,73718.3,12.11,4.53,4.75,0,*4C
1504343303.43,34516,21.63,73716.3,12.11,4.31,4.59,0,*45
1504343304.67,34517,21.63,73714.8,12.11,3.07,2.85,0,*41
1504343305.88,34518,21.63,73716.0,12.07,2.43,2.65,0,*46
1504343307.12,34519,21.63,73712.3,12.01,3.11,3.55,0,*45
1504343308.35,34520,21.63,73714.3,11.99,2.39,2.47,0,*44
1504343309.61,34521,21.63,73718.0,11.97,1.97,2.25,0,*48
1504343310.85,34522,21.63,73714.3,11.93,3.11,3.15,0,*41
1504343312.08,34523,21.63,73708.5,11.91,3.89,4.01,0,*41
1504343313.27,34524,21.63,73708.3,11.91,4.19,4.49,0,*44
1504343314.51,34525,21.63,73708.8,11.91,4.37,4.71,0,*42
1504343315.71,34526,21.63,73710.0,11.89,4.01,4.23,0,*4A
1504343316.9,34527,21.63,73710.5,11.89,4.11,4.33,0,*4B
1504343318.1,34528,21.63,73710.5,11.89,3.97,4.15,0,*49
1504343319.36,34529,21.63,73714.0,11.87,3.75,3.97,0,*47
1504343320.6,34530,21.63,73710.5,11.87,3.29,3.45,0,*49
1504343321.87,34531,21.63,73708.3,11.79,1.09,1.17,0,*4C